Location: Zagreb
(45.8000°N, 16.0000°E)
Time: 20:27:33
(UTC+01:00)

DX 1 - Pass Details

Date: 02 November 2020
Orbit: 619 x 630 km, 98.5° (Epoch: 01 December)

Event Time Altitude Azimuth Distance (km) Brightness Sun altitude
Rises 05:15:42 0° 162° (SSE) 2,885 ? -14.7°
Reaches altitude 10° 05:17:52 10° 161° (SSE) 1,982 ? -14.4°
Maximum altitude 05:22:10 82° 75° (ENE) 632 ? -13.6°
Drops below altitude 10° 05:26:31 10° 348° (NNW) 1,996 ? -12.9°
Sets 05:28:43 0° 347° (NNW) 2,907 ? -12.5°
